Regional Weather Roundup
Issued by NWS

Home | Current Version | Previous Version | Graphics & Text | Print | Product List | Glossary On
Versions: 1 2 3 4 5 6 7 8 9 10 11 12 13 14 15 16 17 18 19 20 21 22 23 24 25 26 27
000
ASUS45 KBOU 261410
RWRCO

WEATHER ROUNDUP FOR COLORADO
NATIONAL WEATHER SERVICE DENVER/BOULDER CO
800 AM MDT MON SEP 26 2016

NOTE: "FAIR" INDICATES FEW OR NO CLOUDS BELOW 12000 FEET WITH NO
SIGNIFICANT WEATHER AND/OR OBSTRUCTIONS TO VISIBILITY.

COZ001>005-013-030-031-261500-
...NORTHWEST COLORADO...

CITY           SKY/WX    TMP DP  RH WIND       PRES   REMARKS
CRAIG          FAIR      34  31  88 CALM      30.53R
HAYDEN         FAIR      37  28  70 E9        30.53R
MEEKER         FAIR      37  33  85 CALM      30.53R
MOUNT WERNER   NOT AVBL
STEAMBOAT SPGS FAIR      32  31  95 E3        30.54R
WALDEN           N/A     30  25  80 SE3       30.59R
$$

COZ006>008-011-261500-
...WEST CENTRAL VALLEYS...

CITY           SKY/WX    TMP DP  RH WIND       PRES   REMARKS
GRAND JUNCTION FAIR      48  38  68 E6        30.46R
MONTROSE       FAIR      42  35  76 SE5       30.52R
EAGLE          SUNNY     34  28  80 CALM      30.58S
RIFLE          FAIR      41  38  89 SE3       30.50R
DELTA          NOT AVBL
NUCLA          FAIR      43  34  70 SE6       30.53R
$$

COZ017>023-064>068-261500-
...SOUTHWEST COLORADO...

CITY           SKY/WX    TMP DP  RH WIND       PRES   REMARKS
DURANGO        FAIR      42  34  73 CALM      30.52S
CORTEZ         FAIR      40  36  86 CALM      30.48R
PAGOSA SPRINGS FAIR      39  36  89 CALM      30.57S
TELLURIDE      FAIR      42  33  70 CALM      30.62R
WOLF CREEK PAS FAIR      36  28  75 MISG      30.76R
$$

COZ009-010-012-014-032>034-037-058>063-261500-
...CENTRAL COLORADO...

CITY           SKY/WX    TMP DP  RH WIND       PRES   REMARKS
ASPEN          FAIR      34  29  82 SE3       30.55R
BUENA VISTA    FAIR      36  27  69 CALM      30.59S
COPPER MTN     FAIR      45  18  33 S6        30.72R
BERTHOUD PASS  FAIR      34  21  60 N10G17    30.72R WCI  26
COTTONWOOD PAS FAIR      43  25  49 SW5       30.64R
GUNNISON       FAIR      32  27  80 CALM      30.62R
KREMMLING      FAIR      30  23  74 CALM      30.61R
LEADVILLE      FAIR      28  22  78 CALM      30.63R
MONARCH PASS   FAIR      34  27  75 SW12      30.82R WCI  25
SALIDA         FAIR      39  28  63 NW6       30.66R
SUNLIGHT       FAIR      43  28  56 CALM      30.69R
WILKERSON PASS FAIR      41  18  38 CALM      30.71R
$$

COZ069>075-261500-
...SAN LUIS VALLEY/SANGRE DE CRISTO MOUNTAINS...

CITY           SKY/WX    TMP DP  RH WIND       PRES   REMARKS
ALAMOSA        FAIR      36  29  75 CALM      30.57R
LA VETA PASS   FAIR      39  30  70 MISG      30.64R
SAGUACHE       NOT AVBL
$$

COZ035-036-038>040-261500-
...NORTHERN COLORADO FRONT RANGE...

CITY           SKY/WX    TMP DP  RH WIND       PRES   REMARKS
DENVER INTL AP FAIR      49  31  49 SW7       30.43R
DMNS CITY PARK NOT AVBL
AURORA         SUNNY     49  32  51 S7        30.44R
FRONT RANGE AP SUNNY     52  32  46 SW9       30.43R
ERIE MUNI ARPT FAIR      44  35  70 CALM      30.43R
BOULDER MUN AP FAIR      50  34  53 CALM      30.42R
CENTENNIAL     FAIR      48  31  51 E5        30.44R
BROOMFIELD     SUNNY     54  32  43 CALM      30.43R
FORT COLLINS   FAIR      45  37  76 N3        30.42S
LONGMONT       FAIR      45  36  70 CALM      30.44R
$$

COZ041-046-047-076>085-087-088-261500-
...PIKES PEAK/PALMER DIVIDE AND SOUTHERN FOOTHILLS...

CITY           SKY/WX    TMP DP  RH WIND       PRES   REMARKS
COLO. SPRINGS  FAIR      46  31  55 N7        30.47S
A. F. ACADEMY  FAIR      39  29  67 N9        30.47S
SCHRIEVER AFB  NOT AVBL
ELLICOTT       NOT AVBL
FALCON         FAIR      48  32  53 NW3       30.49S
FORT CARSON    FAIR      46  31  56 NW9       30.44S
LIMON          FAIR      44  30  57 N5        30.43S
MONUMENT HILL  FAIR      46  30  53 SW7       30.50S
TRINIDAD       FAIR      49  32  52 W9        30.46S
$$

COZ042>045-048>051-090-091-261500-
...NORTHEAST COLORADO...

CITY           SKY/WX    TMP DP  RH WIND       PRES   REMARKS
GREELEY ARPT   FAIR      43  36  75 CALM      30.43R
AKRON          FAIR      50  31  48 W14       30.39R
BURLINGTON     FAIR      48  38  68 W7        30.40R
WRAY           FAIR      43  34  70 W6        30.39
STERLING       FAIR      37  34  87 S7        30.38S
HOLYOKE        FAIR      45  36  70 CALM      30.37F
FORT MORGAN    FAIR      42  32  69 SW6       30.41R
$$

COZ086-089-092>099-261500-
...SOUTHEAST COLORADO...

CITY           SKY/WX    TMP DP  RH WIND       PRES   REMARKS
PUEBLO         FAIR      46  29  51 S3        30.43R
LA JUNTA       FAIR      47  32  56 W6        30.42R
LAMAR          FAIR      45  32  60 CALM      30.40R
SPRINGFIELD    NOT AVBL
$$




USA.gov is the U.S. government's official web portal to all federal, state and local government web resources and services.